Showing default

COSMOS 88, 1586

Orbit data source: Space-Track

COSMOS 88, 1586 is a payload satellite owned by OKB-10 (CIS) in LEO that was launched on Sat, 18 Sep 1965 UTC via a KOSMOS 65S3 launch vehicle from the Tyuratam Missile And Space Complex (TTMTR). Payload-class satellites include a variety of spacecraft equipped with specific instruments for various scientific and technological missions. These include communications satellites like Starlink; space stations such as the ISS; scientific satellites like the Hubble; Earth observation satellites from companies like Planet Labs, Umbra, and HawkEye 360; GPS; miniature CubeSats for education and research; and military/defense satellites.

Loading next visibility...
Identifier
1586, 1965-073C
Orbit
LEO
Country
Flag of CISCIS
Related business
Manufacturer
OKB-10
Mission
Spacecraft
Bus & Motor
STRELA-1 11F610, Unknown motor
Mass
50 kg wet, 50 kg dry
Launch date (UTC)
1965-09-18 (60 years ago)
Launch vehicle
KOSMOS 65S3
Launch site
Tyuratam Missile And Space Complex (TTMTR)
Object type
Payload
Rocket body
Debris
Shape & HBR
Unknown
Radar Cross Section
Medium (>0.1 m² and <1 m²)

Expand to show TLE details & history
Last TLE update: 8 hours ago

TLE from 8 hours ago
0 COSMOS 88
1 01586U 65073C   25346.95745748 -.00000081  00000-0  80521-4 0  9990
2 01586  56.0582 159.2655 0185560 280.1111 243.1751 12.43342381735335
Epoch: 2025-12-12T22:58Z
TLE epoch observation values (Epoch: 2025-12-12T22:58:44.326Z)
Latitude
15.34493°
Longitude
-97.90157°
Altitude
1,560.879 km
Speed
7.058 km/s
True Right ascension
21h 54m 41s
True Declination
15° 15' 59"
Sunlit
Object was in daylight at epoch
Visualization orbit readout
Latitude
Unknown
Longitude
Unknown
Altitude
Unknown
Speed
Unknown
Apparent Right ascension
Unknown
Apparent Declination
Unknown
Sunlit
N/A
Visualization observer readout
Local Sidereal Time
05:21:43
Azimuth
Unknown
Elevation
Unknown
Doppler factor
Unknown
Orbital elements
Apogee altitude
1,638.333 km
Perigee altitude
1,346.246 km
Semi-major axis
7,870.427 km
Eccentricity
0.01856
Inclination
56.0582°
RAAN
159.2655°
Arg. of periapsis
280.1111°
True anomaly
241.29756°
Mean anomaly
243.1751°
Eccentric anomaly
242.23433°
Mean motion
3.10846 °/min
Orbital period
115.81 mins
BSTAR
0.000080521
Loading maneuver chart data...
Computing Atmospheric mass density...
Loading historical data...
Loading historical data...
Loading historical data...
Loading historical data...
Loading historical data...
Loading historical data...
Loading historical data...

Documentation

Showing up to 5 results
|